Probability
16 90 100 100 100 100 100 100 100 100 100 97 94 94 94 87 84 84 87 94 97 97 97 100 100 97 100 100 100 100 100 100 100 100 100 100 100 100 100 100 97 94 90
23 90 100 100 100 100 100 100 100 100 100 97 90 90 84 77 74 74 77 81 90 97 97 100 100 100 100 100 100 100 100 100 97 97 97 97 100 100 100 100 94 100 94
39 97 100 100 100 100 100 100 100 100 97 94 87 87 74 77 68 71 74 81 87 90 94 97 100 100 100 100 100 97 100 97 97 97 90 94 97 100 97 97 97 100 100
39 97 97 100 100 100 100 100 100 100 100 100 94 77 61 65 58 61 61 68 74 81 87 94 94 94 97 100 100 100 97 90 87 90 77 81 84 90 94 97 97 100 97
29 87 100 100 100 100 100 100 100 100 100 100 90 74 65 58 55 52 55 55 68 71 71 77 84 90 94 90 97 97 90 84 87 77 84 87 90 87 81 87 87 97 97
29 52 100 100 100 100 100 100 100 100 100 100 90 81 65 55 39 32 26 29 35 35 48 55 71 74 87 90 90 97 100 90 84 84 94 97 90 84 81 87 84 87 90
19 39 100 100 100 100 100 100 100 100 97 94 94 84 61 35 26 13 3 6 16 19 16 35 39 45 74 90 90 97 97 84 77 87 90 90 97 84 77 77 84 87 84
10 32 84 100 100 100 100 100 100 100 97 94 94 87 45 29 19 16 3 3 3 10 10 10 19 26 42 77 90 94 90 94 84 81 94 94 97 90 84 81 77 81 84
0 13 74 90 97 100 100 100 100 100 97 94 97 87 48 29 16 13 0 0 0 3 0 0 6 16 52 68 87 97 90 77 71 71 65 87 97 94 90 81 81 81 84
0 3 42 81 84 77 94 100 100 100 100 97 97 94 55 26 19 13 0 0 0 3 0 0 6 16 52 81 90 87 58 58 42 55 68 90 100 97 90 87 84 84 90
0 0 13 45 65 65 74 97 100 100 100 100 97 90 77 29 13 13 0 0 0 0 0 0 3 6 26 71 77 42 26 16 19 29 74 94 90 94 90 94 97 90 87
0 3 16 29 35 39 52 97 100 97 100 100 90 74 65 10 6 0 0 0 0 0 0 0 0 3 0 3 6 16 3 3 3 6 65 87 87 84 84 90 97 90 94
6 16 16 39 32 32 87 97 100 97 97 87 48 71 58 6 3 0 0 0 0 0 0 3 0 0 0 0 0 3 3 0 0 10 68 84 81 81 77 90 87 84 84
0 16 16 32 35 42 61 77 100 97 97 87 55 32 45 13 3 0 0 0 0 0 0 0 0 0 0 0 0 3 3 0 0 16 87 74 81 71 81 81 87 87 87
3 45 42 42 32 39 42 81 81 90 84 77 74 32 26 16 0 0 0 0 0 0 0 0 0 0 0 0 0 0 0 0 0 13 65 81 84 71 74 81 81 81 84
3 19 45 55 39 35 42 90 87 71 97 61 65 42 10 3 0 0 0 0 0 0 0 0 0 0 0 0 0 0 0 0 0 3 23 68 94 87 84 81 81 74 68
10 13 29 65 55 39 26 29 42 74 74 77 65 35 6 3 0 3 0 0 0 0 0 0 0 0 0 0 0 0 0 0 0 0 0 23 58 81 87 84 71 84 68
16 10 26 87 74 61 65 87 87 77 68 77 58 45 13 3 3 10 16 10 0 0 0 0 0 0 0 0 0 0 0 0 0 0 6 13 19 23 68 74 77 65 65
6 26 39 74 90 84 84 100 97 74 90 84 71 55 32 13 6 19 32 26 10 3 3 0 0 0 0 0 0 0 0 0 0 0 3 6 10 19 29 48 52 55 58
13 13 48 84 100 100 100 100 100 100 94 87 74 74 42 35 23 45 65 26 13 23 13 6 3 6 10 10 0 0 0 0 0 0 0 0 0 0 0 3 16 19 39
6 16 32 81 97 100 100 100 100 100 100 100 87 77 68 61 65 74 71 68 55 45 29 0 6 10 13 6 13 10 3 0 0 0 0 0 0 0 0 3 3 10 10
10 13 23 55 90 100 97 97 94 90 90 90 94 81 81 77 90 71 90 87 81 77 48 23 19 39 23 10 23 39 13 16 3 0 0 0 0 0 0 0 0 3 3
35 23 10 35 61 90 87 84 77 74 71 74 81 84 81 87 97 97 90 90 90 90 81 61 48 42 68 6 10 23 10 13 16 0 0 0 0 0 0 0 0 0 0
48 45 19 29 52 77 84 77 68 45 42 39 52 61 71 81 97 94 87 87 81 87 81 74 39 68 65 52 10 13 3 10 0 3 0 0 0 0 0 0 0 0 0
32 45 35 29 45 68 71 55 45 26 19 23 32 39 52 71 74 90 94 90 90 84 77 74 71 65 55 61 32 10 6 13 0 6 3 0 0 3 0 0 0 0 0
23 29 48 45 55 55 48 42 32 13 6 6 16 32 58 71 68 65 81 84 77 81 71 77 71 71 68 61 48 23 13 16 13 10 10 6 0 0 0 0 0 0 0
Height
5908 5907 5907 5906 5906 5905 5905 5904 5903 5903 5901 5901 5900 5899 5898 5898 5898 5897 5897 5897 5897 5898 5898 5899 5899 5900 5901 5902 5902 5903 5904 5905 5906 5907 5908 5909 5910 5911 5912 5913 5914 5915 5915
5909 5908 5908 5907 5907 5907 5906 5906 5905 5904 5903 5902 5901 5900 5899 5898 5898 5898 5897 5897 5898 5898 5898 5898 5899 5899 5900 5900 5901 5902 5903 5904 5904 5905 5906 5907 5907 5909 5910 5911 5912 5913 5914
5909 5909 5909 5908 5908 5908 5907 5907 5906 5905 5904 5903 5902 5901 5900 5899 5898 5898 5898 5897 5897 5897 5897 5898 5898 5898 5898 5899 5900 5901 5902 5902 5903 5904 5904 5905 5906 5907 5908 5909 5910 5911 5912
5909 5909 5909 5909 5909 5909 5908 5908 5907 5906 5905 5904 5903 5902 5901 5900 5899 5898 5898 5897 5897 5897 5897 5897 5897 5897 5897 5898 5898 5899 5900 5901 5902 5903 5903 5903 5904 5905 5906 5907 5908 5909 5909
5909 5909 5910 5910 5910 5909 5909 5909 5908 5907 5906 5905 5904 5903 5901 5900 5899 5899 5898 5897 5897 5897 5896 5896 5896 5896 5896 5897 5897 5898 5899 5900 5901 5902 5902 5902 5903 5903 5904 5905 5905 5906 5907
5909 5909 5910 5910 5910 5910 5909 5909 5909 5908 5907 5906 5905 5904 5902 5901 5900 5899 5898 5897 5897 5896 5896 5896 5896 5896 5896 5896 5896 5897 5898 5899 5900 5900 5901 5901 5902 5902 5903 5903 5904 5904 5905
5909 5909 5910 5910 5910 5910 5910 5909 5909 5908 5907 5906 5905 5904 5903 5902 5900 5899 5898 5898 5897 5896 5896 5895 5895 5895 5895 5895 5896 5896 5897 5898 5898 5899 5900 5900 5900 5901 5901 5902 5902 5902 5903
5909 5909 5909 5909 5909 5909 5909 5909 5909 5908 5907 5906 5906 5904 5903 5902 5901 5900 5899 5898 5897 5896 5895 5895 5895 5895 5895 5895 5895 5895 5896 5897 5897 5898 5898 5899 5899 5900 5900 5901 5901 5901 5901
5909 5909 5909 5909 5909 5909 5909 5908 5908 5907 5907 5906 5905 5904 5903 5902 5901 5900 5899 5898 5897 5896 5895 5894 5894 5894 5894 5894 5894 5895 5895 5895 5896 5896 5897 5898 5898 5899 5899 5899 5900 5900 5900
5909 5908 5908 5908 5908 5908 5908 5907 5907 5906 5906 5905 5904 5904 5903 5902 5901 5900 5899 5898 5897 5895 5895 5894 5894 5894 5894 5894 5894 5894 5894 5894 5895 5895 5895 5896 5897 5897 5898 5898 5898 5899 5899
5908 5908 5907 5907 5907 5907 5907 5906 5906 5905 5904 5904 5903 5902 5902 5901 5900 5899 5898 5897 5896 5895 5894 5893 5893 5893 5893 5893 5893 5893 5893 5893 5893 5894 5894 5895 5895 5896 5896 5896 5897 5897 5898
5908 5907 5907 5906 5906 5905 5905 5904 5904 5903 5903 5902 5902 5901 5900 5900 5899 5898 5897 5896 5895 5894 5893 5893 5892 5892 5892 5891 5891 5891 5891 5892 5892 5892 5893 5893 5894 5894 5894 5895 5895 5895 5896
5907 5906 5905 5905 5904 5903 5903 5902 5902 5901 5900 5900 5899 5899 5898 5898 5897 5897 5896 5895 5894 5893 5892 5892 5891 5891 5890 5890 5890 5890 5890 5890 5890 5891 5891 5892 5892 5893 5893 5893 5894 5894 5894
5905 5904 5904 5903 5902 5901 5900 5899 5899 5898 5898 5897 5897 5896 5896 5895 5895 5895 5894 5893 5892 5892 5891 5890 5890 5889 5889 5888 5888 5888 5888 5888 5888 5888 5889 5889 5890 5891 5891 5892 5892 5893 5893
5902 5901 5901 5900 5899 5898 5897 5896 5896 5895 5895 5894 5894 5893 5893 5892 5892 5892 5891 5891 5890 5890 5889 5889 5888 5888 5887 5887 5886 5886 5886 5886 5885 5885 5886 5886 5887 5888 5888 5889 5890 5891 5891
5898 5898 5897 5896 5896 5895 5894 5893 5892 5891 5891 5890 5890 5890 5889 5889 5889 5889 5889 5888 5888 5887 5887 5887 5886 5886 5885 5884 5884 5884 5883 5883 5883 5883 5883 5883 5883 5884 5885 5886 5887 5888 5889
5894 5893 5893 5892 5891 5890 5889 5888 5887 5887 5886 5886 5886 5886 5886 5886 5885 5885 5885 5885 5885 5884 5884 5884 5884 5883 5883 5882 5881 5881 5881 5880 5880 5880 5879 5879 5880 5880 5881 5882 5883 5884 5885
5889 5888 5888 5887 5886 5885 5884 5883 5882 5882 5882 5882 5882 5881 5881 5881 5881 5881 5881 5881 5881 5881 5880 5880 5880 5880 5879 5879 5878 5878 5878 5877 5877 5876 5876 5876 5876 5876 5877 5878 5878 5879 5880
5883 5883 5882 5882 5881 5880 5879 5878 5877 5877 5877 5877 5877 5877 5876 5877 5877 5877 5877 5877 5877 5877 5876 5876 5876 5876 5876 5875 5875 5874 5874 5874 5873 5873 5872 5872 5872 5872 5873 5873 5874 5875 5876
5877 5876 5876 5876 5875 5874 5874 5873 5872 5871 5871 5871 5871 5871 5871 5871 5872 5872 5872 5872 5872 5872 5872 5872 5872 5872 5871 5871 5871 5870 5870 5870 5869 5869 5868 5868 5868 5868 5868 5869 5869 5870 5871
5870 5870 5870 5870 5869 5869 5868 5867 5866 5865 5865 5865 5865 5865 5865 5866 5866 5867 5867 5867 5867 5867 5867 5868 5868 5867 5867 5867 5866 5866 5865 5865 5865 5864 5864 5864 5863 5863 5864 5864 5865 5865 5866
5862 5862 5862 5862 5862 5862 5861 5860 5859 5858 5858 5857 5857 5857 5858 5860 5860 5861 5861 5861 5862 5862 5862 5862 5862 5862 5862 5862 5862 5861 5860 5860 5860 5860 5859 5859 5859 5859 5859 5859 5860 5860 5861
5853 5854 5854 5854 5854 5854 5854 5853 5852 5851 5850 5849 5849 5850 5851 5853 5854 5854 5855 5856 5856 5856 5856 5857 5857 5857 5856 5856 5856 5856 5855 5855 5854 5854 5854 5854 5854 5854 5854 5854 5855 5855 5856
5844 5845 5845 5846 5846 5846 5846 5846 5845 5843 5843 5841 5841 5842 5844 5845 5847 5848 5849 5849 5850 5850 5850 5851 5851 5851 5851 5850 5850 5850 5850 5849 5848 5848 5848 5848 5848 5848 5848 5849 5849 5850 5851
5835 5835 5836 5836 5836 5837 5838 5838 5838 5836 5835 5833 5833 5834 5835 5838 5840 5841 5842 5843 5843 5844 5844 5845 5845 5845 5845 5844 5844 5843 5843 5843 5842 5842 5842 5842 5841 5841 5842 5843 5844 5844 5845
5825 5825 5826 5826 5827 5828 5829 5829 5830 5829 5828 5826 5826 5827 5828 5829 5831 5833 5835 5836 5837 5838 5838 5838 5838 5838 5838 5838 5837 5837 5837 5836 5836 5835 5835 5835 5835 5835 5836 5836 5837 5839 5840
Wind_Speed
9 11 13 14 14 14 14 14 13 12 11 10 9 8 8 7 6 5 5 4 4 4 5 6 6 7 7 7 8 9 10 11 12 13 14 15 15 16 15 15 15 14 13
7 9 11 12 13 13 13 13 13 12 11 10 9 8 8 7 6 5 4 4 3 3 4 5 6 7 8 8 9 9 8 9 10 11 13 14 14 15 16 16 16 15 14
6 7 9 11 12 12 12 12 12 12 12 11 10 9 8 7 6 5 4 3 2 2 3 4 5 6 7 9 9 9 8 9 9 9 11 11 12 13 14 15 16 16 15
6 6 8 9 10 11 11 12 12 12 12 11 10 9 8 7 6 5 4 3 2 2 2 3 4 5 7 8 9 10 9 9 9 8 9 9 10 11 12 13 15 16 16
6 6 6 8 9 9 10 10 11 11 11 11 10 8 8 7 6 5 4 3 2 1 2 3 4 4 5 7 9 11 10 10 9 8 8 8 8 10 11 11 12 14 15
5 5 5 6 7 7 8 9 9 9 10 10 10 9 8 6 5 4 4 3 2 1 1 2 3 4 4 6 9 10 11 11 10 8 8 8 7 8 9 9 11 12 14
5 4 4 4 5 5 6 6 7 8 8 9 9 8 8 6 5 4 4 3 2 1 1 2 2 3 4 5 7 9 11 12 11 10 10 9 9 8 8 8 8 10 12
5 3 3 3 3 3 4 4 5 5 6 7 7 7 7 6 5 4 3 3 2 1 1 1 2 3 4 4 6 7 9 11 11 11 11 10 10 9 9 9 9 9 10
4 3 2 1 1 0 1 2 2 3 4 5 5 6 6 5 4 4 3 2 1 0 1 2 2 3 3 4 5 7 8 9 10 10 10 11 11 10 9 9 9 9 10
4 3 1 1 1 2 2 2 2 2 3 4 4 5 4 4 3 3 2 2 1 1 2 2 2 2 3 4 6 7 8 9 10 10 10 10 11 11 11 10 10 10 10
4 3 3 2 2 3 4 5 5 5 5 4 5 5 5 4 3 3 2 2 2 3 3 3 3 3 4 5 6 7 8 9 10 10 10 10 10 11 11 11 11 11 12
5 5 5 5 4 5 6 7 7 7 7 6 6 6 6 5 4 4 4 3 3 4 4 4 4 4 4 5 7 8 9 10 11 11 11 11 11 11 10 11 11 12 12
7 7 7 7 7 7 7 8 8 9 9 9 9 8 8 7 7 6 5 5 5 5 5 5 5 5 6 6 7 8 10 11 12 12 13 13 12 12 11 10 11 12 12
9 9 10 11 10 10 10 10 10 11 11 11 11 10 10 10 9 8 7 7 6 6 6 6 7 7 7 7 8 9 10 12 13 13 14 15 15 14 14 13 12 12 12
12 12 12 13 13 13 13 12 12 12 12 12 12 12 12 12 11 11 10 9 9 8 8 8 8 8 8 8 9 10 11 12 14 15 15 16 16 17 17 16 16 15 15
15 16 16 16 16 16 16 15 14 14 14 14 14 14 14 14 13 13 12 12 11 10 10 10 10 9 10 10 10 11 12 13 14 15 16 17 17 18 19 19 19 19 18
19 19 19 19 19 18 18 17 17 16 16 16 16 16 16 16 15 15 14 14 14 13 13 13 12 12 11 11 11 12 12 13 14 15 16 17 18 19 19 20 20 21 21
24 23 23 22 21 20 20 19 19 18 18 17 17 17 17 17 17 16 16 16 16 16 15 16 15 14 14 14 13 13 14 14 15 16 16 17 18 19 20 21 21 22 22
26 26 25 23 23 23 22 22 21 21 20 19 19 19 19 19 19 18 18 18 18 17 17 17 17 17 16 16 16 16 16 16 16 17 18 18 19 19 20 21 21 22 22
29 28 27 26 26 26 25 24 23 23 22 21 21 21 22 21 20 20 19 19 19 19 19 19 19 18 19 19 18 18 18 18 18 18 19 19 20 20 20 21 22 22 22
32 31 31 30 30 29 27 27 27 26 25 25 24 23 23 23 22 22 21 21 21 21 21 20 21 21 21 21 21 20 20 20 20 20 20 21 21 21 22 22 22 22 23
35 35 35 34 33 32 30 30 30 30 29 29 28 27 25 25 24 24 24 22 22 22 21 21 22 22 22 22 22 23 23 23 23 22 22 22 22 22 22 23 23 23 23
36 36 37 36 36 35 34 34 35 34 34 34 32 30 27 27 26 26 25 24 23 22 22 23 23 23 23 23 23 23 24 25 24 23 24 24 24 24 24 24 23 23 23
35 37 38 39 39 38 38 38 38 37 38 37 35 32 30 27 26 25 24 24 23 23 23 23 23 23 23 23 24 25 25 26 26 25 25 26 25 25 25 25 24 24 23
36 36 37 39 40 40 41 41 41 40 41 40 39 34 31 29 27 25 24 24 23 23 22 22 22 22 23 24 24 25 26 26 26 26 26 25 25 26 25 26 26 25 24
36 37 38 39 40 41 42 43 43 42 43 43 40 36 32 29 26 25 23 23 23 21 21 22 22 23 23 23 24 24 25 25 26 25 25 25 25 25 25 26 26 26 25
Wind_Direction
78 74 74 76 75 71 67 64 64 67 70 73 76 77 81 87 97 108 117 134 156 175 187 195 202 207 212 216 216 218 222 226 229 231 232 233 234 237 239 241 245 249 253
91 80 75 75 75 73 70 65 63 64 66 70 73 75 76 80 88 97 106 121 141 164 182 198 211 218 222 225 226 225 225 225 227 231 231 236 237 239 240 241 243 245 250
110 92 80 75 75 73 70 67 64 62 63 66 69 71 73 75 81 90 97 110 132 159 183 199 212 222 225 224 222 220 220 220 225 229 231 235 237 238 239 239 242 245 246
126 107 88 79 76 72 68 66 64 61 60 60 62 66 69 71 78 88 96 104 122 150 186 204 213 225 225 223 218 217 217 218 222 227 230 234 233 234 236 238 240 241 242
133 121 99 84 78 73 68 66 64 60 57 57 58 61 65 68 76 86 94 104 120 148 190 209 216 223 220 216 214 215 217 218 225 226 226 229 229 234 236 239 242 241 241
130 128 108 93 82 75 67 65 63 59 56 55 54 56 59 64 71 82 91 103 123 146 187 216 224 218 213 210 211 215 217 219 225 225 224 224 228 233 231 236 243 241 239
119 131 118 101 87 75 66 62 60 57 53 49 48 49 50 54 62 72 78 89 109 148 189 218 225 219 211 209 212 217 218 221 225 228 230 232 235 235 235 235 242 241 237
101 123 126 109 96 80 65 56 51 47 43 38 38 40 42 44 52 62 67 72 83 125 214 222 222 221 219 217 216 215 216 220 227 234 233 232 233 235 237 236 240 244 238
79 93 105 114 127 110 49 37 28 24 21 17 19 23 28 31 39 47 53 55 53 345 272 250 235 224 225 222 220 219 220 222 228 234 235 234 234 234 235 238 240 237 235
56 53 39 360 275 267 270 281 305 326 339 343 348 354 0 7 16 26 24 18 2 325 300 281 264 243 233 229 227 226 226 229 231 233 233 233 235 234 238 240 238 236 233
27 16 357 331 300 283 275 274 279 287 294 302 310 319 326 335 341 341 336 324 314 312 308 299 285 269 252 242 238 238 237 237 237 238 236 233 235 239 242 242 238 237 232
352 344 334 321 306 292 280 275 276 278 282 282 286 294 299 303 310 309 305 295 293 298 300 300 294 275 264 253 248 247 246 244 244 244 242 240 241 243 242 237 236 236 232
322 320 315 309 300 291 284 278 276 277 278 276 275 277 280 283 288 290 289 288 283 284 291 295 291 279 269 264 258 255 254 253 251 249 247 245 244 244 242 238 236 235 232
302 302 303 301 296 290 284 279 275 275 274 272 271 270 270 271 274 277 276 277 280 280 282 288 285 280 274 269 266 262 259 258 257 254 252 250 249 248 245 242 237 234 234
291 292 293 294 294 290 285 278 275 274 270 266 266 266 264 264 265 268 269 270 274 278 281 285 283 277 276 273 270 266 263 260 259 257 256 253 251 249 248 245 241 239 238
288 290 291 291 290 288 284 279 274 272 269 266 264 264 262 260 260 263 265 266 269 274 275 278 279 277 276 275 272 270 268 265 263 260 257 254 252 250 249 247 245 243 243
287 288 289 288 287 285 282 278 274 270 267 266 265 264 260 258 257 260 260 261 264 269 272 272 275 276 276 275 274 274 273 270 267 264 260 256 253 251 250 248 246 245 245
285 287 287 285 285 284 281 279 275 272 269 266 264 263 259 255 255 257 257 260 263 266 268 268 271 272 274 275 276 277 277 275 272 269 263 259 255 253 251 250 249 248 248
280 283 283 281 283 283 281 278 275 272 270 267 263 260 257 255 254 254 255 258 261 265 265 265 269 272 273 275 277 279 279 278 275 272 268 263 259 256 254 253 252 251 251
274 276 276 277 280 281 279 278 275 272 271 268 263 259 256 255 254 253 254 256 260 263 263 265 267 270 271 273 276 278 278 278 277 274 271 267 263 259 256 254 254 253 252
270 269 271 271 275 275 274 274 273 271 270 268 265 260 256 254 253 253 254 257 260 261 262 263 265 268 271 272 273 276 278 279 277 276 274 271 267 262 258 256 255 254 254
266 266 266 266 268 269 269 271 271 270 269 267 263 259 258 255 253 254 256 257 258 261 261 262 263 266 270 272 271 273 276 278 277 275 274 272 270 267 263 259 257 255 255
263 263 263 263 263 263 264 267 268 268 267 266 264 261 260 256 253 253 255 256 257 259 260 263 264 266 270 271 272 274 276 277 278 276 272 271 270 267 264 260 257 256 255
263 261 260 259 259 259 260 264 266 264 264 264 262 261 261 256 253 255 254 254 255 258 261 264 266 267 270 274 274 273 273 276 275 277 275 271 268 265 263 259 256 255 255
262 262 260 257 255 256 258 260 262 261 262 262 262 259 259 256 256 254 253 253 255 257 261 265 267 269 271 274 275 275 274 274 274 275 276 272 268 263 260 256 254 254 255
262 261 259 257 255 255 255 257 259 260 261 262 262 261 258 256 254 251 253 253 255 259 263 267 269 270 271 272 273 274 274 273 272 275 275 273 271 264 260 256 253 252 253